GW0232 Weather Reports


time (UTC)temp
C
wind
direction
speed
KPH
gust
KPH
rain 1hr
cm
rain 24hr
cm
rain mn
cm
humidity
%
barometer
mb
20260507113026 0 256 0.0 1.6 0.00 0.00 0.00 80 1009.7
20260507111528 0 0 0.0 0.0 0.00 0.00 0.00 80 1009.9
20260507110031 0 0 0.0 0.0 0.00 0.00 0.00 79 1009.9
20260507104530 0 0 0.0 0.0 0.00 0.00 0.00 77 1009.8
20260507093030 1 0 0.0 0.0 0.00 0.00 0.00 76 1009.7
20260507083028 2 0 0.0 1.6 0.00 0.00 0.00 71 1009.8
20260507081527 2 0 0.0 1.6 0.00 0.00 0.00 71 1010.0
20260507080036 2 0 0.0 1.6 0.00 0.00 0.00 70 1010.0
20260507074528 2 0 0.0 1.6 0.00 0.00 0.00 69 1010.1
20260507073029 2 0 0.0 1.6 0.00 0.00 0.00 70 1010.1
20260507071556 3 253 0.0 1.6 0.00 0.00 0.00 69 1010.2
20260507070030 3 0 0.0 0.0 0.00 0.00 0.00 67 1010.3
20260507064527 3 0 0.0 1.6 0.00 0.00 0.00 66 1010.3
20260507063025 3 236 1.6 3.2 0.00 0.00 0.00 65 1010.2
20260507061529 4 240 0.0 1.6 0.00 0.00 0.00 62 1010.1
20260507060030 5 0 0.0 0.0 0.00 0.00 0.00 63 1010.2
20260507054526 5 0 0.0 1.6 0.00 0.00 0.00 64 1010.4
20260507053044 5 0 0.0 1.6 0.00 0.00 0.00 62 1010.4
20260507051538 5 241 0.0 1.6 0.00 0.00 0.00 62 1010.5
20260507050035 5 0 0.0 3.2 0.00 0.00 0.00 64 1010.7
20260507044529 5 251 1.6 3.2 0.00 0.00 0.00 68 1010.8
20260507043030 5 241 1.6 1.6 0.00 0.00 0.00 66 1011.0
20260507041529 5 252 1.6 3.2 0.00 0.00 0.00 65 1011.2
20260507040028 6 259 1.6 1.6 0.00 0.00 0.00 59 1011.3
20260507034535 6 243 0.0 4.8 0.00 0.00 0.00 60 1011.5
20260507033038 7 246 0.0 1.6 0.00 0.00 0.00 59 1011.4
20260507031527 7 232 0.0 1.6 0.00 0.00 0.00 59 1011.7
20260507030029 8 236 0.0 1.6 0.00 0.00 0.00 50 1011.9
20260507024533 9 229 0.0 3.2 0.00 0.00 0.00 45 1012.0
20260507023034 10 0 0.0 0.0 0.00 0.00 0.00 41 1011.9
20260507021528 10 0 0.0 0.0 0.00 0.00 0.00 38 1011.9
20260507020026 10 0 0.0 0.0 0.00 0.00 0.00 36 1011.9
20260507014529 11 0 0.0 0.0 0.00 0.00 0.00 34 1011.9
20260507013028 11 0 0.0 1.6 0.00 0.00 0.00 33 1011.9
20260507011533 12 0 0.0 1.6 0.00 0.00 0.00 34 1011.9
20260507010030 12 0 0.0 3.2 0.00 0.00 0.00 33 1012.1
20260507004536 12 0 0.0 3.2 0.00 0.00 0.00 33 1012.1
20260507003024 13 0 0.0 3.2 0.00 0.00 0.00 31 1012.5
20260507000030 13 0 1.6 4.8 0.00 0.00 0.00 30 1013.0
20260506234528 13 44 0.0 4.8 0.00 0.00 0.00 31 1013.1
20260506233026 13 323 0.0 4.8 0.00 0.00 0.00 31 1013.1
20260506231528 14 78 0.0 3.2 0.00 0.00 0.00 29 1013.1
20260506230028 13 311 0.0 8.0 0.00 0.00 0.00 31 1013.4
20260506224530 13 214 0.0 3.2 0.00 0.00 0.00 30 1013.5
20260506223029 13 69 0.0 4.8 0.00 0.00 0.00 32 1013.7
20260506221529 14 134 1.6 6.4 0.00 0.00 0.00 29 1013.8
20260506220034 14 61 1.6 8.0 0.00 0.00 0.00 31 1014.0
20260506214528 14 228 1.6 4.8 0.00 0.00 0.00 34 1014.3
20260506213032 15 252 1.6 6.4 0.00 0.00 0.00 33 1014.2
20260506211532 15 43 0.0 6.4 0.00 0.00 0.00 30 1014.5
20260506210027 15 270 1.6 8.0 0.00 0.00 0.00 30 1014.7
20260506204529 15 341 1.6 8.0 0.00 0.00 0.00 28 1014.9
20260506203029 15 10 1.6 8.0 0.00 0.00 0.00 30 1015.1
20260506201528 15 309 0.0 12.9 0.00 0.00 0.00 33 1015.4
20260506200027 15 102 1.6 6.4 0.00 0.00 0.00 33 1015.6
20260506194530 15 56 1.6 11.3 0.00 0.00 0.00 30 1015.8
20260506193026 16 214 1.6 9.7 0.00 0.00 0.00 33 1015.8
20260506191528 15 331 3.2 8.0 0.00 0.00 0.00 33 1015.9
20260506190028 15 169 1.6 11.3 0.00 0.00 0.00 33 1016.5
20260506184529 13 72 1.6 9.7 0.00 0.00 0.00 34 1016.9
20260506183028 14 58 1.6 12.9 0.00 0.00 0.00 35 1017.3
20260506181526 13 355 3.2 8.0 0.00 0.00 0.00 35 1017.6
20260506180030 13 210 3.2 16.1 0.00 0.00 0.00 33 1018.1
20260506174527 13 277 1.6 9.7 0.00 0.00 0.00 34 1018.5
20260506173028 13 58 1.6 8.0 0.00 0.00 0.00 36 1018.5
20260506171526 12 236 1.6 6.4 0.00 0.00 0.00 37 1018.9
20260506170028 12 90 1.6 8.0 0.00 0.00 0.00 37 1019.3
20260506164528 12 266 3.2 9.7 0.00 0.00 0.00 42 1019.4
20260506163026 11 313 3.2 9.7 0.00 0.00 0.00 41 1019.4
20260506161526 11 98 1.6 8.0 0.00 0.00 0.00 39 1019.3
20260506160027 11 304 1.6 9.7 0.00 0.00 0.00 44 1019.3
20260506154529 10 235 0.0 6.4 0.00 0.00 0.00 46 1019.3
20260506153028 9 103 3.2 8.0 0.00 0.00 0.00 42 1018.8
20260506151525 8 350 1.6 6.4 0.00 0.00 0.00 47 1018.8
20260506150025 7 221 0.0 3.2 0.00 0.00 0.00 52 1018.8
20260506144529 7 225 3.2 6.4 0.00 0.00 0.00 52 1019.1
20260506143030 7 329 0.0 3.2 0.00 0.00 0.00 57 1019.3
20260506141534 6 230 0.0 3.2 0.00 0.00 0.00 59 1019.2
20260506140028 3 134 1.6 4.8 0.00 0.00 0.00 66 1019.5
20260506134527 2 238 3.2 4.8 0.00 0.00 0.00 65 1019.7
20260506133025 1 81 0.0 4.8 0.00 0.00 0.00 70 1019.7
20260506131528 0 153 0.0 4.8 0.00 0.00 0.00 70 1019.6
20260506130028 0 234 1.6 4.8 0.00 0.00 0.00 70 1019.3
20260506124525 0 258 3.2 4.8 0.00 0.00 0.00 72 1018.9
20260506123025 0 258 1.6 3.2 0.00 0.00 0.00 71 1019.1
20260506121529 0 250 0.0 4.8 0.00 0.00 0.00 73 1018.8
20260506120030 -1 0 0.0 1.6 0.00 0.00 0.00 75 1018.5
20260506114528 -1 238 0.0 1.6 0.00 0.00 0.00 75 1018.3